TimeHST,TemperatureF,Dew PointF,Humidity,Sea Level PressureIn,VisibilityMPH,Wind Direction,Wind SpeedMPH,Gust SpeedMPH,PrecipitationIn,Events,Conditions,WindDirDegrees,DateUTC
12:54 AM,72.0,61.0,68,30.18,10.0,NE,12.7,21.9,N/A,,Overcast,50,2011-12-27 10:54:00
1:54 AM,72.0,62.1,71,30.16,10.0,ENE,10.4,-,N/A,Rain,Light Rain,60,2011-12-27 11:54:00
2:54 AM,70.0,62.1,76,30.14,10.0,ENE,12.7,18.4,N/A,Rain,Light Rain,60,2011-12-27 12:54:00
3:54 AM,70.0,63.0,78,30.14,10.0,NE,15.0,20.7,N/A,Rain,Light Rain,50,2011-12-27 13:54:00
4:21 AM,69.8,62.6,78,30.12,10.0,NE,11.5,-,N/A,,Mostly Cloudy,50,2011-12-27 14:21:00
4:30 AM,69.8,62.6,78,30.12,10.0,ENE,10.4,-,N/A,Rain,Light Rain,60,2011-12-27 14:30:00
4:54 AM,70.0,63.0,78,30.13,10.0,NE,9.2,-,N/A,,Scattered Clouds,50,2011-12-27 14:54:00
5:54 AM,71.1,62.1,73,30.14,10.0,ENE,12.7,21.9,N/A,,Scattered Clouds,70,2011-12-27 15:54:00
6:54 AM,70.0,59.0,68,30.15,10.0,ENE,11.5,-,N/A,,Partly Cloudy,60,2011-12-27 16:54:00
7:54 AM,71.1,57.9,63,30.16,10.0,ENE,12.7,-,N/A,,Partly Cloudy,60,2011-12-27 17:54:00
8:54 AM,73.9,60.1,62,30.17,10.0,ENE,12.7,23.0,N/A,,Partly Cloudy,60,2011-12-27 18:54:00
9:54 AM,77.0,62.1,60,30.18,10.0,NE,17.3,28.8,N/A,,Partly Cloudy,50,2011-12-27 19:54:00
10:54 AM,78.1,62.1,58,30.16,10.0,ENE,16.1,28.8,N/A,,Partly Cloudy,70,2011-12-27 20:54:00
11:54 AM,79.0,63.0,58,30.14,10.0,NE,15.0,28.8,N/A,,Partly Cloudy,50,2011-12-27 21:54:00
12:54 PM,80.1,59.0,48,30.10,10.0,ENE,23.0,32.2,N/A,,Partly Cloudy,60,2011-12-27 22:54:00
1:54 PM,80.1,60.1,50,30.08,10.0,NE,26.5,36.8,N/A,,Partly Cloudy,50,2011-12-27 23:54:00
2:54 PM,78.1,63.0,60,30.08,10.0,NE,19.6,31.1,N/A,,Partly Cloudy,40,2011-12-28 00:54:00
3:54 PM,77.0,62.1,60,30.09,10.0,NE,23.0,32.2,N/A,,Partly Cloudy,50,2011-12-28 01:54:00
4:54 PM,75.9,61.0,60,30.10,10.0,NE,19.6,33.4,N/A,,Partly Cloudy,50,2011-12-28 02:54:00
5:54 PM,73.9,62.1,66,30.12,10.0,NE,21.9,28.8,N/A,,Partly Cloudy,50,2011-12-28 03:54:00
6:54 PM,73.0,63.0,71,30.14,10.0,NE,11.5,-,N/A,,Scattered Clouds,50,2011-12-28 04:54:00
7:54 PM,72.0,62.1,71,30.15,10.0,NE,12.7,-,N/A,,Partly Cloudy,50,2011-12-28 05:54:00
8:54 PM,72.0,63.0,73,30.16,10.0,NE,12.7,-,N/A,,Clear,40,2011-12-28 06:54:00
9:54 PM,72.0,62.1,71,30.17,10.0,NE,13.8,20.7,N/A,,Clear,50,2011-12-28 07:54:00
10:54 PM,72.0,61.0,68,30.17,10.0,ENE,15.0,24.2,N/A,,Partly Cloudy,60,2011-12-28 08:54:00
11:54 PM,72.0,62.1,71,30.16,10.0,NE,16.1,23.0,N/A,,Clear,50,2011-12-28 09:54:00